Time,TemperatureF,DewpointF,PressureIn,WindDirection,WindDirectionDegrees,WindSpeedMPH,WindSpeedGustMPH,Humidity,HourlyPrecipIn,Conditions,Clouds,dailyrainin,SoftwareType,DateUTC
2013-08-07 00:01:00,64.2,42.5,29.68,SSE,151,0.0,0.0,45,0.00,,SKC,0.00,VWS V14.01,2013-08-07 04:01:00,
2013-08-07 00:06:00,64.4,42.0,29.68,East,83,0.0,0.0,44,0.00,,SKC,0.00,VWS V14.01,2013-08-07 04:06:00,
2013-08-07 00:11:00,64.6,42.2,29.68,East,83,0.0,0.0,44,0.00,,SKC,0.00,VWS V14.01,2013-08-07 04:11:00,
2013-08-07 00:16:00,64.8,42.4,29.68,East,83,0.0,0.0,44,0.00,,SKC,0.00,VWS V14.01,2013-08-07 04:16:00,
2013-08-07 00:21:00,64.8,42.4,29.68,East,83,0.0,0.0,44,0.00,,SKC,0.00,VWS V14.01,2013-08-07 04:21:00,
2013-08-07 00:26:00,64.8,43.0,29.68,East,83,0.0,0.0,45,0.00,,SKC,0.00,VWS V14.01,2013-08-07 04:26:00,
2013-08-07 00:31:00,64.9,43.1,29.68,NE,46,0.0,0.0,45,0.00,,SKC,0.00,VWS V14.01,2013-08-07 04:31:00,
2013-08-07 00:36:00,64.9,43.1,29.68,NE,41,0.0,0.0,45,0.00,,SKC,0.00,VWS V14.01,2013-08-07 04:36:00,
2013-08-07 00:41:00,64.9,43.1,29.68,NE,41,0.0,0.0,45,0.00,,SKC,0.00,VWS V14.01,2013-08-07 04:41:00,
2013-08-07 00:46:00,64.9,43.1,29.68,NE,41,0.0,0.0,45,0.00,,SKC,0.00,VWS V14.01,2013-08-07 04:46:00,
2013-08-07 00:51:00,64.8,43.0,29.68,NE,41,0.0,0.0,45,0.00,,SKC,0.00,VWS V14.01,2013-08-07 04:51:00,
2013-08-07 00:56:00,64.8,43.0,29.68,NE,41,0.0,0.0,45,0.00,,SKC,0.00,VWS V14.01,2013-08-07 04:56:00,
2013-08-07 01:01:00,64.8,43.5,29.68,NE,41,0.0,0.0,46,0.00,,SKC,0.00,VWS V14.01,2013-08-07 05:01:00,
2013-08-07 01:06:00,64.8,43.5,29.68,NE,41,0.0,0.0,46,0.00,,SKC,0.00,VWS V14.01,2013-08-07 05:06:00,
2013-08-07 01:11:00,64.8,43.5,29.68,NE,41,0.0,0.0,46,0.00,,SKC,0.00,VWS V14.01,2013-08-07 05:11:00,
2013-08-07 01:16:00,64.8,43.5,29.65,NE,41,0.0,0.0,46,0.00,,SKC,0.00,VWS V14.01,2013-08-07 05:16:00,
2013-08-07 01:21:00,64.8,43.5,29.65,NE,41,0.0,0.0,46,0.00,,SKC,0.00,VWS V14.01,2013-08-07 05:21:00,
2013-08-07 01:26:00,64.8,43.5,29.65,NE,41,0.0,0.0,46,0.00,,SKC,0.00,VWS V14.01,2013-08-07 05:26:00,
2013-08-07 01:31:00,64.8,43.5,29.68,NE,41,0.0,0.0,46,0.00,,SKC,0.00,VWS V14.01,2013-08-07 05:31:00,
2013-08-07 01:36:00,64.6,43.4,29.68,NE,41,0.0,0.0,46,0.00,,SKC,0.00,VWS V14.01,2013-08-07 05:36:00,
2013-08-07 01:41:00,64.6,43.9,29.68,NE,41,0.0,0.0,47,0.00,,SKC,0.00,VWS V14.01,2013-08-07 05:41:00,
2013-08-07 01:46:00,64.4,43.8,29.68,NE,41,0.0,0.0,47,0.00,,SKC,0.00,VWS V14.01,2013-08-07 05:46:00,
2013-08-07 01:51:00,64.4,43.8,29.68,NE,41,0.0,0.0,47,0.00,,SKC,0.00,VWS V14.01,2013-08-07 05:51:00,
2013-08-07 01:56:00,64.4,43.8,29.68,NE,41,0.0,0.0,47,0.00,,SKC,0.00,VWS V14.01,2013-08-07 05:56:00,
2013-08-07 02:01:00,64.2,44.1,29.68,NE,41,0.0,0.0,48,0.00,,SKC,0.00,VWS V14.01,2013-08-07 06:01:00,
2013-08-07 02:06:00,64.2,44.1,29.68,NE,41,0.0,0.0,48,0.00,,SKC,0.00,VWS V14.01,2013-08-07 06:06:00,
2013-08-07 02:11:00,64.2,44.1,29.68,NE,41,0.0,0.0,48,0.00,,SKC,0.00,VWS V14.01,2013-08-07 06:11:00,
2013-08-07 02:16:00,64.2,44.1,29.68,NE,41,0.0,0.0,48,0.00,,SKC,0.00,VWS V14.01,2013-08-07 06:16:00,
2013-08-07 02:21:00,64.2,44.7,29.68,NE,41,0.0,0.0,49,0.00,,SKC,0.00,VWS V14.01,2013-08-07 06:21:00,
2013-08-07 02:26:00,64.2,44.7,29.68,NE,41,0.0,0.0,49,0.00,,SKC,0.00,VWS V14.01,2013-08-07 06:26:00,
2013-08-07 02:31:00,64.2,44.7,29.68,NE,41,0.0,0.0,49,0.00,,SKC,0.00,VWS V14.01,2013-08-07 06:31:00,
2013-08-07 02:36:00,64.2,44.7,29.68,NE,41,0.0,0.0,49,0.00,,SKC,0.00,VWS V14.01,2013-08-07 06:36:00,
2013-08-07 02:41:00,64.2,44.7,29.68,NE,41,0.0,0.0,49,0.00,,SKC,0.00,VWS V14.01,2013-08-07 06:41:00,
2013-08-07 02:46:00,64.2,45.2,29.68,NE,41,0.0,0.0,50,0.00,,SKC,0.00,VWS V14.01,2013-08-07 06:46:00,
2013-08-07 02:51:00,64.2,45.2,29.68,NE,41,0.0,0.0,50,0.00,,SKC,0.00,VWS V14.01,2013-08-07 06:51:00,
2013-08-07 02:56:00,64.0,45.0,29.68,NE,41,0.0,0.0,50,0.00,,SKC,0.00,VWS V14.01,2013-08-07 06:56:00,
2013-08-07 03:01:00,64.0,45.0,29.68,NE,41,0.0,0.0,50,0.00,,SKC,0.00,VWS V14.01,2013-08-07 07:01:00,
2013-08-07 03:05:00,63.9,45.4,29.68,NE,41,0.0,0.0,51,0.00,,SKC,0.00,VWS V14.01,2013-08-07 07:05:00,
2013-08-07 03:10:00,63.9,45.4,29.68,NE,41,0.0,0.0,51,0.00,,SKC,0.00,VWS V14.01,2013-08-07 07:10:00,
2013-08-07 03:15:00,63.7,45.2,29.68,NE,41,0.0,0.0,51,0.00,,SKC,0.00,VWS V14.01,2013-08-07 07:15:00,
2013-08-07 03:20:00,63.5,45.1,29.68,NE,34,0.0,0.0,51,0.00,,SKC,0.00,VWS V14.01,2013-08-07 07:20:00,
2013-08-07 03:25:00,63.5,45.1,29.68,NE,34,0.0,0.0,51,0.00,,SKC,0.00,VWS V14.01,2013-08-07 07:25:00,
2013-08-07 03:30:00,63.3,44.9,29.68,NE,34,0.0,0.0,51,0.00,,SKC,0.00,VWS V14.01,2013-08-07 07:30:00,
2013-08-07 03:35:00,63.3,45.4,29.68,NE,37,0.0,0.0,52,0.00,,SKC,0.00,VWS V14.01,2013-08-07 07:35:00,
2013-08-07 03:40:00,63.3,45.9,29.68,NE,37,0.0,0.0,53,0.00,,SKC,0.00,VWS V14.01,2013-08-07 07:40:00,
2013-08-07 03:45:00,63.1,45.8,29.68,NE,37,0.0,0.0,53,0.00,,SKC,0.00,VWS V14.01,2013-08-07 07:45:00,
2013-08-07 03:50:00,63.1,45.8,29.68,NE,37,0.0,0.0,53,0.00,,SKC,0.00,VWS V14.01,2013-08-07 07:50:00,
2013-08-07 03:55:00,63.1,46.2,29.68,NE,37,0.0,0.0,54,0.00,,SKC,0.00,VWS V14.01,2013-08-07 07:55:00,
2013-08-07 04:00:00,63.1,45.8,29.68,NE,37,0.0,0.0,53,0.00,,SKC,0.00,VWS V14.01,2013-08-07 08:00:00,
2013-08-07 04:05:00,63.1,46.2,29.68,NE,37,0.0,0.0,54,0.00,,SKC,0.00,VWS V14.01,2013-08-07 08:05:00,
2013-08-07 04:10:00,63.1,46.2,29.68,NE,37,0.0,0.0,54,0.00,,SKC,0.00,VWS V14.01,2013-08-07 08:10:00,
2013-08-07 04:15:00,63.1,46.2,29.68,NE,37,0.0,0.0,54,0.00,,SKC,0.00,VWS V14.01,2013-08-07 08:15:00,
2013-08-07 04:20:00,63.0,46.6,29.68,NE,37,0.0,0.0,55,0.00,,SKC,0.00,VWS V14.01,2013-08-07 08:20:00,
2013-08-07 04:25:00,63.0,46.6,29.68,NE,37,0.0,0.0,55,0.00,,SKC,0.00,VWS V14.01,2013-08-07 08:25:00,
2013-08-07 04:30:00,63.0,46.6,29.68,NE,37,0.0,0.0,55,0.00,,SKC,0.00,VWS V14.01,2013-08-07 08:30:00,
2013-08-07 04:35:00,63.0,46.6,29.68,NE,37,0.0,0.0,55,0.00,,SKC,0.00,VWS V14.01,2013-08-07 08:35:00,
2013-08-07 04:40:00,63.0,46.6,29.68,NE,37,0.0,0.0,55,0.00,,SKC,0.00,VWS V14.01,2013-08-07 08:40:00,
2013-08-07 04:45:00,63.0,46.6,29.68,NE,37,0.0,0.0,55,0.00,,SKC,0.00,VWS V14.01,2013-08-07 08:45:00,
2013-08-07 04:50:00,63.0,47.0,29.68,NE,37,0.0,0.0,56,0.00,,SKC,0.00,VWS V14.01,2013-08-07 08:50:00,
2013-08-07 04:55:00,63.0,47.0,29.68,NE,37,0.0,0.0,56,0.00,,SKC,0.00,VWS V14.01,2013-08-07 08:55:00,
2013-08-07 05:00:00,63.1,47.2,29.68,NE,37,0.0,0.0,56,0.00,,SKC,0.00,VWS V14.01,2013-08-07 09:00:00,
2013-08-07 05:05:00,63.1,47.2,29.68,NE,37,0.0,0.0,56,0.00,,SKC,0.00,VWS V14.01,2013-08-07 09:05:00,
2013-08-07 05:10:00,63.1,47.2,29.68,NE,37,0.0,0.0,56,0.00,,SKC,0.00,VWS V14.01,2013-08-07 09:10:00,
2013-08-07 05:15:00,63.1,47.7,29.68,NE,37,0.0,0.0,57,0.00,,SKC,0.00,VWS V14.01,2013-08-07 09:15:00,
2013-08-07 05:20:00,63.3,47.8,29.68,NE,37,0.0,0.0,57,0.00,,SKC,0.00,VWS V14.01,2013-08-07 09:20:00,
2013-08-07 05:25:00,63.3,47.8,29.68,NE,37,0.0,0.0,57,0.00,,SKC,0.00,VWS V14.01,2013-08-07 09:25:00,
2013-08-07 05:30:00,63.5,48.0,29.68,NE,37,0.0,0.0,57,0.00,,SKC,0.00,VWS V14.01,2013-08-07 09:30:00,
2013-08-07 05:35:00,63.5,48.0,29.68,NNE,21,0.0,0.0,57,0.00,,SKC,0.00,VWS V14.01,2013-08-07 09:35:00,
2013-08-07 05:40:00,63.5,48.5,29.68,NNE,21,0.0,0.0,58,0.00,,SKC,0.00,VWS V14.01,2013-08-07 09:40:00,
2013-08-07 05:45:00,63.5,48.5,29.68,NNE,21,0.0,0.0,58,0.00,,SKC,0.00,VWS V14.01,2013-08-07 09:45:00,
2013-08-07 05:50:00,63.5,48.5,29.68,NNE,21,0.0,0.0,58,0.00,,SKC,0.00,VWS V14.01,2013-08-07 09:50:00,
2013-08-07 05:55:00,63.5,48.5,29.68,NNE,21,0.0,0.0,58,0.00,,SKC,0.00,VWS V14.01,2013-08-07 09:55:00,
2013-08-07 06:00:00,63.5,48.5,29.68,NNE,21,0.0,0.0,58,0.00,,SKC,0.00,VWS V14.01,2013-08-07 10:00:00,
2013-08-07 06:05:00,63.5,48.5,29.68,NNE,21,0.0,0.0,58,0.00,,SKC,0.00,VWS V14.01,2013-08-07 10:05:00,
2013-08-07 06:10:00,63.5,48.5,29.68,NNE,21,0.0,0.0,58,0.00,,SKC,0.00,VWS V14.01,2013-08-07 10:10:00,
2013-08-07 06:15:00,63.5,48.9,29.68,NNE,21,0.0,0.0,59,0.00,,SKC,0.00,VWS V14.01,2013-08-07 10:15:00,
2013-08-07 06:20:00,63.7,49.5,29.68,NNE,21,0.0,0.0,60,0.00,,SKC,0.00,VWS V14.01,2013-08-07 10:20:00,
2013-08-07 06:25:00,63.9,49.3,29.68,NNE,21,0.0,0.0,59,0.00,,SKC,0.00,VWS V14.01,2013-08-07 10:25:00,
2013-08-07 06:30:00,63.9,49.3,29.68,NNE,21,0.0,0.0,59,0.00,,SKC,0.00,VWS V14.01,2013-08-07 10:30:00,
2013-08-07 06:35:00,64.0,49.4,29.68,NNE,21,0.0,0.0,59,0.00,,SKC,0.00,VWS V14.01,2013-08-07 10:35:00,
2013-08-07 06:40:00,64.0,49.4,29.68,NNE,21,0.0,0.0,59,0.00,,SKC,0.00,VWS V14.01,2013-08-07 10:40:00,
2013-08-07 06:45:00,64.0,49.4,29.68,NNE,21,0.0,0.0,59,0.00,,SKC,0.00,VWS V14.01,2013-08-07 10:45:00,
2013-08-07 06:50:00,64.0,49.9,29.71,NNE,21,0.0,0.0,60,0.00,,SKC,0.00,VWS V14.01,2013-08-07 10:50:00,
2013-08-07 06:55:00,64.2,50.1,29.71,NNE,21,0.0,0.0,60,0.00,,SKC,0.00,VWS V14.01,2013-08-07 10:55:00,
2013-08-07 07:00:00,64.2,50.1,29.71,NNE,21,0.0,0.0,60,0.00,,SKC,0.00,VWS V14.01,2013-08-07 11:00:00,
2013-08-07 07:05:00,64.4,50.2,29.71,NNE,21,0.0,0.0,60,0.00,,SKC,0.00,VWS V14.01,2013-08-07 11:05:00,
2013-08-07 07:10:00,64.4,49.8,29.71,NNE,21,0.0,0.0,59,0.00,,SKC,0.00,VWS V14.01,2013-08-07 11:10:00,
2013-08-07 07:15:00,64.6,50.0,29.71,NNE,21,0.0,0.0,59,0.00,,SKC,0.00,VWS V14.01,2013-08-07 11:15:00,
2013-08-07 07:20:00,64.6,50.0,29.71,NNE,21,0.0,0.0,59,0.00,,SKC,0.00,VWS V14.01,2013-08-07 11:20:00,
2013-08-07 07:25:00,64.9,50.7,29.71,NNE,21,0.0,0.0,60,0.00,,SKC,0.00,VWS V14.01,2013-08-07 11:25:00,
2013-08-07 07:30:00,65.1,50.5,29.71,NNE,21,0.0,0.0,59,0.00,,SKC,0.00,VWS V14.01,2013-08-07 11:30:00,
2013-08-07 07:35:00,65.5,50.8,29.71,NNE,21,0.0,0.0,59,0.00,,SKC,0.00,VWS V14.01,2013-08-07 11:35:00,
2013-08-07 07:40:00,65.5,50.3,29.71,NNE,21,0.0,0.0,58,0.00,,SKC,0.00,VWS V14.01,2013-08-07 11:40:00,
2013-08-07 07:45:00,65.5,50.3,29.71,NNE,21,0.0,0.0,58,0.00,,SKC,0.00,VWS V14.01,2013-08-07 11:45:00,
2013-08-07 07:50:00,65.7,50.5,29.71,NNE,21,0.0,0.0,58,0.00,,SKC,0.00,VWS V14.01,2013-08-07 11:50:00,
2013-08-07 07:55:00,65.7,50.5,29.71,NNE,21,0.0,0.0,58,0.00,,SKC,0.00,VWS V14.01,2013-08-07 11:55:00,
2013-08-07 08:00:00,65.7,50.0,29.71,NNE,21,0.0,0.0,57,0.00,,SKC,0.00,VWS V14.01,2013-08-07 12:00:00,
2013-08-07 08:05:00,65.5,48.9,29.71,NNE,21,0.0,0.0,55,0.00,,SKC,0.00,VWS V14.01,2013-08-07 12:05:00,
2013-08-07 08:10:00,65.5,48.9,29.71,NNE,21,4.8,4.8,55,0.00,,SKC,0.00,VWS V14.01,2013-08-07 12:10:00,
2013-08-07 08:15:00,65.7,49.1,29.71,NNE,21,0.0,0.0,55,0.00,,SKC,0.00,VWS V14.01,2013-08-07 12:15:00,
2013-08-07 08:20:00,65.7,49.1,29.68,NNE,21,0.0,0.0,55,0.00,,SKC,0.00,VWS V14.01,2013-08-07 12:20:00,
2013-08-07 08:25:00,65.8,49.2,29.68,NNE,21,0.0,0.0,55,0.00,,SKC,0.00,VWS V14.01,2013-08-07 12:25:00,
2013-08-07 08:30:00,66.0,49.4,29.68,NNE,21,0.0,0.0,55,0.00,,SKC,0.00,VWS V14.01,2013-08-07 12:30:00,
2013-08-07 08:35:00,66.0,49.4,29.68,NNE,21,0.0,0.0,55,0.00,,SKC,0.00,VWS V14.01,2013-08-07 12:35:00,
2013-08-07 08:40:00,66.2,49.1,29.68,NNE,23,0.0,2.7,54,0.00,,SKC,0.00,VWS V14.01,2013-08-07 12:40:00,
2013-08-07 08:45:00,66.4,49.2,29.68,NNE,23,0.0,0.0,54,0.00,,SKC,0.00,VWS V14.01,2013-08-07 12:45:00,
2013-08-07 08:50:00,66.6,49.4,29.68,NNE,27,0.0,0.0,54,0.00,,SKC,0.00,VWS V14.01,2013-08-07 12:50:00,
2013-08-07 08:55:00,66.7,49.6,29.68,NNE,27,0.0,0.0,54,0.00,,SKC,0.00,VWS V14.01,2013-08-07 12:55:00,
2013-08-07 09:00:00,67.1,49.9,29.68,NNE,27,0.0,0.0,54,0.00,,SKC,0.00,VWS V14.01,2013-08-07 13:00:00,
2013-08-07 09:05:00,67.3,49.6,29.68,NNE,27,0.0,0.0,53,0.00,,SKC,0.00,VWS V14.01,2013-08-07 13:05:00,
2013-08-07 09:10:00,67.5,48.7,29.68,NNE,27,0.0,0.0,51,0.00,,SKC,0.00,VWS V14.01,2013-08-07 13:10:00,
2013-08-07 09:15:00,67.6,48.9,29.68,NNE,27,0.0,0.0,51,0.00,,SKC,0.00,VWS V14.01,2013-08-07 13:15:00,
2013-08-07 09:20:00,67.8,49.0,29.68,NNE,27,0.0,0.0,51,0.00,,SKC,0.00,VWS V14.01,2013-08-07 13:20:00,
2013-08-07 09:25:00,68.0,48.7,29.68,NNE,27,0.0,0.0,50,0.00,,SKC,0.00,VWS V14.01,2013-08-07 13:25:00,
2013-08-07 09:30:00,68.2,47.8,29.68,NE,47,0.0,2.7,48,0.00,,SKC,0.00,VWS V14.01,2013-08-07 13:30:00,
2013-08-07 09:34:00,68.5,48.1,29.68,NE,47,0.0,0.0,48,0.00,,SKC,0.00,VWS V14.01,2013-08-07 13:34:00,
2013-08-07 09:39:00,69.1,48.0,29.68,NE,47,0.0,0.0,47,0.00,,SKC,0.00,VWS V14.01,2013-08-07 13:39:00,
2013-08-07 09:44:00,69.4,48.3,29.68,NNW,339,0.0,0.0,47,0.00,,SKC,0.00,VWS V14.01,2013-08-07 13:44:00,
2013-08-07 09:49:00,69.8,47.5,29.68,North,11,0.0,0.0,45,0.00,,SKC,0.00,VWS V14.01,2013-08-07 13:49:00,
2013-08-07 09:54:00,70.2,47.2,29.68,North,11,0.0,0.0,44,0.00,,SKC,0.00,VWS V14.01,2013-08-07 13:54:00,
2013-08-07 09:59:00,70.3,47.4,29.68,NNE,33,0.0,0.0,44,0.00,,SKC,0.00,VWS V14.01,2013-08-07 13:59:00,
2013-08-07 10:04:00,70.3,46.8,29.68,NNE,33,0.0,0.0,43,0.00,,SKC,0.00,VWS V14.01,2013-08-07 14:04:00,
2013-08-07 10:09:00,70.3,46.2,29.68,SW,219,0.0,0.0,42,0.00,,SKC,0.00,VWS V14.01,2013-08-07 14:09:00,
2013-08-07 10:14:00,70.3,46.2,29.68,SW,220,0.0,0.0,42,0.00,,SKC,0.00,VWS V14.01,2013-08-07 14:14:00,
2013-08-07 10:19:00,70.3,46.2,29.68,SW,219,0.0,0.0,42,0.00,,SKC,0.00,VWS V14.01,2013-08-07 14:19:00,
2013-08-07 10:24:00,70.3,46.2,29.68,ESE,106,0.0,0.0,42,0.00,,SKC,0.00,VWS V14.01,2013-08-07 14:24:00,
2013-08-07 10:29:00,70.2,45.4,29.68,SE,126,0.0,0.0,41,0.00,,SKC,0.00,VWS V14.01,2013-08-07 14:29:00,
2013-08-07 10:34:00,70.2,44.1,29.68,SSE,154,0.0,2.2,39,0.00,,SKC,0.00,VWS V14.01,2013-08-07 14:34:00,
2013-08-07 10:39:00,70.3,43.5,29.68,SSE,154,0.0,0.0,38,0.00,,SKC,0.00,VWS V14.01,2013-08-07 14:39:00,
2013-08-07 10:44:00,70.3,43.5,29.68,SSE,154,0.0,0.0,38,0.00,,SKC,0.00,VWS V14.01,2013-08-07 14:44:00,
2013-08-07 10:49:00,70.3,43.5,29.68,SSE,154,0.0,0.0,38,0.00,,SKC,0.00,VWS V14.01,2013-08-07 14:49:00,
2013-08-07 10:54:00,70.3,43.5,29.68,ESE,104,4.8,4.8,38,0.00,,SKC,0.00,VWS V14.01,2013-08-07 14:54:00,
2013-08-07 10:59:00,70.3,42.9,29.68,East,82,0.0,0.0,37,0.00,,SKC,0.00,VWS V14.01,2013-08-07 14:59:00,
2013-08-07 11:04:00,70.3,42.9,29.68,SE,137,0.0,0.0,37,0.00,,SKC,0.00,VWS V14.01,2013-08-07 15:04:00,
2013-08-07 11:09:00,70.5,43.0,29.68,SSW,204,0.0,0.0,37,0.00,,SKC,0.00,VWS V14.01,2013-08-07 15:09:00,
2013-08-07 11:14:00,70.7,43.2,29.68,SSW,203,0.0,0.0,37,0.00,,SKC,0.00,VWS V14.01,2013-08-07 15:14:00,
2013-08-07 11:19:00,70.9,43.3,29.68,SSW,204,0.0,0.0,37,0.00,,SKC,0.00,VWS V14.01,2013-08-07 15:19:00,
2013-08-07 11:24:00,71.1,43.5,29.68,SE,145,0.0,0.0,37,0.00,,SKC,0.00,VWS V14.01,2013-08-07 15:24:00,
2013-08-07 11:29:00,71.4,43.8,29.68,NW,324,4.8,4.8,37,0.00,,SKC,0.00,VWS V14.01,2013-08-07 15:29:00,
2013-08-07 11:34:00,71.8,42.7,29.68,SE,125,0.0,2.7,35,0.00,,SKC,0.00,VWS V14.01,2013-08-07 15:34:00,
2013-08-07 11:39:00,72.0,42.1,29.68,ESE,115,6.4,6.4,34,0.00,,SKC,0.00,VWS V14.01,2013-08-07 15:39:00,
2013-08-07 11:44:00,72.1,43.0,29.68,SE,132,0.0,0.0,35,0.00,,SKC,0.00,VWS V14.01,2013-08-07 15:44:00,
2013-08-07 11:49:00,72.0,42.1,29.68,SE,129,0.0,0.0,34,0.00,,SKC,0.00,VWS V14.01,2013-08-07 15:49:00,
2013-08-07 11:54:00,72.0,42.1,29.68,SSE,168,0.0,0.0,34,0.00,,SKC,0.00,VWS V14.01,2013-08-07 15:54:00,
2013-08-07 11:59:00,71.8,41.9,29.68,SW,234,0.0,0.0,34,0.00,,SKC,0.00,VWS V14.01,2013-08-07 15:59:00,
2013-08-07 12:04:00,71.8,41.9,29.68,South,187,4.0,4.0,34,0.00,,SKC,0.00,VWS V14.01,2013-08-07 16:04:00,
2013-08-07 12:09:00,71.8,42.7,29.68,NW,314,0.0,0.0,35,0.00,,SKC,0.00,VWS V14.01,2013-08-07 16:09:00,
2013-08-07 12:14:00,71.8,42.7,29.68,NNW,341,0.0,0.0,35,0.00,,SKC,0.00,VWS V14.01,2013-08-07 16:14:00,
2013-08-07 12:19:00,72.1,42.2,29.68,North,0,0.0,0.0,34,0.00,,SKC,0.00,VWS V14.01,2013-08-07 16:19:00,
2013-08-07 12:24:00,72.3,42.4,29.68,West,273,0.0,0.0,34,0.00,,SKC,0.00,VWS V14.01,2013-08-07 16:24:00,
2013-08-07 12:29:00,72.5,42.6,29.68,WNW,292,4.8,4.8,34,0.00,,SKC,0.00,VWS V14.01,2013-08-07 16:29:00,
2013-08-07 12:34:00,72.5,41.8,29.68,South,172,0.0,2.7,33,0.00,,SKC,0.00,VWS V14.01,2013-08-07 16:34:00,
2013-08-07 12:39:00,72.5,41.8,29.68,SSE,166,0.0,0.0,33,0.00,,SKC,0.00,VWS V14.01,2013-08-07 16:39:00,
2013-08-07 12:44:00,72.5,41.8,29.68,SSE,153,0.0,2.7,33,0.00,,SKC,0.00,VWS V14.01,2013-08-07 16:44:00,
2013-08-07 12:49:00,72.5,41.8,29.68,SSE,151,0.0,0.0,33,0.00,,SKC,0.00,VWS V14.01,2013-08-07 16:49:00,
2013-08-07 12:54:00,72.7,42.7,29.68,South,170,0.0,0.0,34,0.00,,SKC,0.00,VWS V14.01,2013-08-07 16:54:00,
2013-08-07 12:59:00,72.9,42.9,29.68,SW,231,0.0,0.0,34,0.00,,SKC,0.00,VWS V14.01,2013-08-07 16:59:00,
2013-08-07 13:04:00,73.2,43.2,29.68,SE,132,0.0,0.0,34,0.00,,SKC,0.00,VWS V14.01,2013-08-07 17:04:00,
2013-08-07 13:09:00,73.4,43.3,29.68,SE,132,0.0,0.0,34,0.00,,SKC,0.00,VWS V14.01,2013-08-07 17:09:00,
2013-08-07 13:14:00,73.4,42.6,29.68,SSW,206,0.0,0.0,33,0.00,,SKC,0.00,VWS V14.01,2013-08-07 17:14:00,
2013-08-07 13:19:00,73.6,42.7,29.68,SE,138,0.0,0.0,33,0.00,,SKC,0.00,VWS V14.01,2013-08-07 17:19:00,
2013-08-07 13:24:00,73.9,43.0,29.68,WSW,251,0.0,2.7,33,0.00,,SKC,0.00,VWS V14.01,2013-08-07 17:24:00,
2013-08-07 13:29:00,73.9,43.0,29.68,SE,124,7.2,7.2,33,0.00,,SKC,0.00,VWS V14.01,2013-08-07 17:29:00,
2013-08-07 13:34:00,74.7,43.7,29.68,SSE,167,0.0,2.2,33,0.00,,SKC,0.00,VWS V14.01,2013-08-07 17:34:00,
2013-08-07 13:39:00,75.4,43.5,29.68,WSW,242,4.0,4.0,32,0.00,,SKC,0.00,VWS V14.01,2013-08-07 17:39:00,
2013-08-07 13:44:00,75.6,42.8,29.68,South,169,4.0,4.0,31,0.00,,SKC,0.00,VWS V14.01,2013-08-07 17:44:00,
2013-08-07 13:49:00,75.6,42.8,29.68,SSE,160,0.0,0.0,31,0.00,,SKC,0.00,VWS V14.01,2013-08-07 17:49:00,
2013-08-07 13:54:00,75.9,44.0,29.68,WSW,239,4.0,4.0,32,0.00,,SKC,0.00,VWS V14.01,2013-08-07 17:54:00,
2013-08-07 13:59:00,76.6,43.8,29.68,South,173,0.0,0.0,31,0.00,,SKC,0.00,VWS V14.01,2013-08-07 17:59:00,
2013-08-07 14:04:00,76.5,43.6,29.65,NE,34,4.0,4.0,31,0.00,,SKC,0.00,VWS V14.01,2013-08-07 18:04:00,
2013-08-07 14:09:00,76.5,43.6,29.65,SW,217,6.4,6.4,31,0.00,,SKC,0.00,VWS V14.01,2013-08-07 18:09:00,
2013-08-07 14:14:00,75.9,43.1,29.65,SSE,162,0.0,3.6,31,0.00,,SKC,0.00,VWS V14.01,2013-08-07 18:14:00,
2013-08-07 14:19:00,75.6,42.8,29.65,NE,52,0.0,4.0,31,0.00,,SKC,0.00,VWS V14.01,2013-08-07 18:19:00,
2013-08-07 14:24:00,75.0,43.2,29.65,NW,313,0.0,4.9,32,0.00,,SKC,0.00,VWS V14.01,2013-08-07 18:24:00,
2013-08-07 14:29:00,74.8,43.8,29.65,NE,56,5.6,5.6,33,0.00,,SKC,0.00,VWS V14.01,2013-08-07 18:29:00,
2013-08-07 14:34:00,74.8,44.6,29.65,West,278,7.2,7.2,34,0.00,,SKC,0.00,VWS V14.01,2013-08-07 18:34:00,
2013-08-07 14:39:00,74.8,43.8,29.65,ESE,107,0.0,3.1,33,0.00,,SKC,0.00,VWS V14.01,2013-08-07 18:39:00,
2013-08-07 14:44:00,75.4,44.3,29.65,SSE,162,0.0,2.2,33,0.00,,SKC,0.00,VWS V14.01,2013-08-07 18:44:00,
2013-08-07 14:49:00,75.7,43.8,29.65,WSW,250,0.0,0.0,32,0.00,,SKC,0.00,VWS V14.01,2013-08-07 18:49:00,
2013-08-07 14:54:00,75.9,44.0,29.65,SSW,197,0.0,3.6,32,0.00,,SKC,0.00,VWS V14.01,2013-08-07 18:54:00,
2013-08-07 14:59:00,75.7,43.8,29.65,ESE,123,0.0,0.0,32,0.00,,SKC,0.00,VWS V14.01,2013-08-07 18:59:00,
2013-08-07 15:04:00,75.7,44.6,29.65,ESE,123,0.0,0.0,33,0.00,,SKC,0.00,VWS V14.01,2013-08-07 19:04:00,
2013-08-07 15:09:00,75.9,44.0,29.65,South,181,0.0,0.0,32,0.00,,SKC,0.00,VWS V14.01,2013-08-07 19:09:00,
2013-08-07 15:14:00,76.1,44.1,29.65,East,93,0.0,0.0,32,0.00,,SKC,0.00,VWS V14.01,2013-08-07 19:14:00,
2013-08-07 15:19:00,76.5,44.4,29.65,North,353,0.0,0.0,32,0.00,,SKC,0.00,VWS V14.01,2013-08-07 19:19:00,
2013-08-07 15:24:00,76.5,43.6,29.65,SW,215,0.0,0.0,31,0.00,,SKC,0.00,VWS V14.01,2013-08-07 19:24:00,
2013-08-07 15:29:00,76.5,43.6,29.65,SSE,160,0.0,0.0,31,0.00,,SKC,0.00,VWS V14.01,2013-08-07 19:29:00,
2013-08-07 15:34:00,76.3,43.5,29.65,SSE,160,0.0,0.0,31,0.00,,SKC,0.00,VWS V14.01,2013-08-07 19:34:00,
2013-08-07 15:39:00,76.3,44.3,29.65,East,95,0.0,0.0,32,0.00,,SKC,0.00,VWS V14.01,2013-08-07 19:39:00,
2013-08-07 15:44:00,76.3,44.3,29.65,East,100,0.0,0.0,32,0.00,,SKC,0.00,VWS V14.01,2013-08-07 19:44:00,
2013-08-07 15:49:00,76.6,44.6,29.65,WSW,240,5.6,5.6,32,0.00,,SKC,0.00,VWS V14.01,2013-08-07 19:49:00,
2013-08-07 15:54:00,76.5,43.6,29.65,SSE,163,0.0,3.1,31,0.00,,SKC,0.00,VWS V14.01,2013-08-07 19:54:00,
2013-08-07 15:59:00,76.3,44.3,29.65,SSE,157,4.0,4.0,32,0.00,,SKC,0.00,VWS V14.01,2013-08-07 19:59:00,
2013-08-07 16:04:00,75.9,44.0,29.65,SSE,164,0.0,0.0,32,0.00,,SKC,0.00,VWS V14.01,2013-08-07 20:04:00,
2013-08-07 16:08:00,75.6,43.7,29.65,SSE,163,4.8,4.8,32,0.00,,SKC,0.00,VWS V14.01,2013-08-07 20:08:00,
2013-08-07 16:13:00,75.2,44.2,29.65,ESE,120,0.0,0.0,33,0.00,,SKC,0.00,VWS V14.01,2013-08-07 20:13:00,
2013-08-07 16:18:00,74.8,43.8,29.65,SSW,193,0.0,0.0,33,0.00,,SKC,0.00,VWS V14.01,2013-08-07 20:18:00,
2013-08-07 16:23:00,74.5,44.3,29.65,SW,215,0.0,0.0,34,0.00,,SKC,0.00,VWS V14.01,2013-08-07 20:23:00,
2013-08-07 16:28:00,74.3,45.7,29.65,SW,215,0.0,0.0,36,0.00,,SKC,0.00,VWS V14.01,2013-08-07 20:28:00,
2013-08-07 16:33:00,73.9,46.8,29.65,ESE,106,0.0,0.0,38,0.00,,SKC,0.00,VWS V14.01,2013-08-07 20:33:00,
2013-08-07 16:38:00,73.6,47.1,29.65,SSE,147,0.0,2.2,39,0.00,,SKC,0.00,VWS V14.01,2013-08-07 20:38:00,
2013-08-07 16:43:00,73.2,47.5,29.65,West,268,4.0,4.0,40,0.00,,SKC,0.00,VWS V14.01,2013-08-07 20:43:00,
2013-08-07 16:48:00,72.9,47.8,29.62,SSW,205,0.0,0.0,41,0.00,,SKC,0.00,VWS V14.01,2013-08-07 20:48:00,
2013-08-07 16:53:00,72.7,47.7,29.62,SSW,205,0.0,0.0,41,0.00,,SKC,0.00,VWS V14.01,2013-08-07 20:53:00,
2013-08-07 16:58:00,72.7,48.3,29.62,SE,144,0.0,0.0,42,0.00,,SKC,0.00,VWS V14.01,2013-08-07 20:58:00,
2013-08-07 17:03:00,72.5,48.1,29.62,SSE,156,0.0,0.0,42,0.00,,SKC,0.00,VWS V14.01,2013-08-07 21:03:00,
2013-08-07 17:08:00,72.7,48.3,29.62,SSE,157,0.0,0.0,42,0.00,,SKC,0.00,VWS V14.01,2013-08-07 21:08:00,
2013-08-07 17:13:00,72.7,48.9,29.62,ESE,122,0.0,0.0,43,0.00,,SKC,0.00,VWS V14.01,2013-08-07 21:13:00,
2013-08-07 17:18:00,72.3,48.6,29.62,West,265,0.0,0.0,43,0.00,,SKC,0.00,VWS V14.01,2013-08-07 21:18:00,
2013-08-07 17:23:00,71.8,48.7,29.62,West,264,0.0,0.0,44,0.00,,SKC,0.00,VWS V14.01,2013-08-07 21:23:00,
2013-08-07 17:28:00,71.2,48.8,29.62,SW,231,0.0,0.0,45,0.00,,SKC,0.00,VWS V14.01,2013-08-07 21:28:00,
2013-08-07 17:33:00,71.1,49.3,29.62,SW,231,0.0,0.0,46,0.00,,SKC,0.00,VWS V14.01,2013-08-07 21:33:00,
2013-08-07 17:38:00,71.1,49.8,29.62,SW,231,0.0,0.0,47,0.00,,SKC,0.00,VWS V14.01,2013-08-07 21:38:00,
2013-08-07 17:43:00,70.9,49.7,29.62,SW,232,0.0,0.0,47,0.00,,SKC,0.00,VWS V14.01,2013-08-07 21:43:00,
2013-08-07 17:48:00,70.9,49.7,29.62,SW,232,0.0,0.0,47,0.00,,SKC,0.00,VWS V14.01,2013-08-07 21:48:00,
2013-08-07 17:53:00,70.9,49.7,29.62,SW,219,0.0,0.0,47,0.00,,SKC,0.00,VWS V14.01,2013-08-07 21:53:00,
2013-08-07 17:58:00,70.9,49.7,29.62,SW,219,0.0,0.0,47,0.00,,SKC,0.00,VWS V14.01,2013-08-07 21:58:00,
2013-08-07 18:03:00,70.9,49.7,29.62,SW,219,0.0,0.0,47,0.00,,SKC,0.00,VWS V14.01,2013-08-07 22:03:00,
2013-08-07 18:08:00,70.9,50.2,29.62,SW,219,0.0,0.0,48,0.00,,SKC,0.00,VWS V14.01,2013-08-07 22:08:00,
2013-08-07 18:13:00,70.9,50.2,29.62,NW,324,0.0,0.0,48,0.00,,SKC,0.00,VWS V14.01,2013-08-07 22:13:00,
2013-08-07 18:18:00,70.9,50.2,29.62,SW,227,0.0,0.0,48,0.00,,SKC,0.00,VWS V14.01,2013-08-07 22:18:00,
2013-08-07 18:23:00,70.9,50.2,29.62,SSE,157,0.0,0.0,48,0.00,,SKC,0.00,VWS V14.01,2013-08-07 22:23:00,
2013-08-07 18:28:00,70.9,50.2,29.62,SSE,157,0.0,0.0,48,0.00,,SKC,0.00,VWS V14.01,2013-08-07 22:28:00,
2013-08-07 18:33:00,70.7,50.1,29.62,SSE,157,0.0,0.0,48,0.04,,SKC,0.04,VWS V14.01,2013-08-07 22:33:00,
2013-08-07 18:38:00,70.5,50.5,29.62,West,260,0.0,0.0,49,0.04,,SKC,0.04,VWS V14.01,2013-08-07 22:38:00,
2013-08-07 18:43:00,70.2,51.2,29.62,West,260,0.0,0.0,51,0.04,,SKC,0.04,VWS V14.01,2013-08-07 22:43:00,
2013-08-07 18:48:00,70.0,51.0,29.62,West,260,0.0,0.0,51,0.04,,SKC,0.04,VWS V14.01,2013-08-07 22:48:00,
2013-08-07 18:53:00,69.8,51.9,29.62,West,260,0.0,0.0,53,0.04,,SKC,0.04,VWS V14.01,2013-08-07 22:53:00,
2013-08-07 18:58:00,69.6,52.3,29.62,West,260,0.0,0.0,54,0.04,,SKC,0.04,VWS V14.01,2013-08-07 22:58:00,
2013-08-07 19:03:00,69.6,52.8,29.62,West,260,0.0,0.0,55,0.04,,SKC,0.04,VWS V14.01,2013-08-07 23:03:00,
2013-08-07 19:08:00,69.6,53.2,29.62,West,260,0.0,0.0,56,0.04,,SKC,0.04,VWS V14.01,2013-08-07 23:08:00,
2013-08-07 19:13:00,69.6,53.2,29.62,West,260,0.0,0.0,56,0.04,,SKC,0.04,VWS V14.01,2013-08-07 23:13:00,
2013-08-07 19:18:00,69.4,53.6,29.62,West,260,0.0,0.0,57,0.04,,SKC,0.04,VWS V14.01,2013-08-07 23:18:00,
2013-08-07 19:23:00,69.4,53.6,29.62,West,260,0.0,0.0,57,0.04,,SKC,0.04,VWS V14.01,2013-08-07 23:23:00,
2013-08-07 19:28:00,69.6,54.7,29.62,West,260,0.0,0.0,59,0.04,,SKC,0.04,VWS V14.01,2013-08-07 23:28:00,
2013-08-07 19:33:00,69.6,55.1,29.62,West,274,0.0,0.0,60,0.00,,SKC,0.04,VWS V14.01,2013-08-07 23:33:00,
2013-08-07 19:38:00,69.6,55.6,29.62,West,274,0.0,0.0,61,0.00,,SKC,0.04,VWS V14.01,2013-08-07 23:38:00,
2013-08-07 19:43:00,69.6,56.5,29.62,West,274,0.0,0.0,63,0.00,,SKC,0.04,VWS V14.01,2013-08-07 23:43:00,
2013-08-07 19:48:00,69.6,56.9,29.62,WSW,245,0.0,0.0,64,0.00,,SKC,0.04,VWS V14.01,2013-08-07 23:48:00,
2013-08-07 19:53:00,69.6,56.9,29.62,WSW,246,0.0,0.0,64,0.00,,SKC,0.04,VWS V14.01,2013-08-07 23:53:00,
2013-08-07 19:58:00,69.6,56.9,29.62,WSW,245,0.0,0.0,64,0.00,,SKC,0.04,VWS V14.01,2013-08-07 23:58:00,
2013-08-07 20:03:00,69.6,57.3,29.62,WSW,245,0.0,0.0,65,0.00,,SKC,0.04,VWS V14.01,2013-08-08 00:03:00,
2013-08-07 20:08:00,69.6,57.3,29.62,WSW,245,0.0,0.0,65,0.00,,SKC,0.04,VWS V14.01,2013-08-08 00:08:00,
2013-08-07 20:13:00,69.6,57.8,29.62,WSW,245,0.0,0.0,66,0.00,,SKC,0.04,VWS V14.01,2013-08-08 00:13:00,
2013-08-07 20:18:00,69.6,57.8,29.62,WSW,245,0.0,0.0,66,0.00,,SKC,0.04,VWS V14.01,2013-08-08 00:18:00,
2013-08-07 20:23:00,69.6,57.8,29.62,WSW,245,0.0,0.0,66,0.00,,SKC,0.04,VWS V14.01,2013-08-08 00:23:00,
2013-08-07 20:28:00,69.8,58.4,29.62,WSW,245,0.0,0.0,67,0.00,,SKC,0.04,VWS V14.01,2013-08-08 00:28:00,
2013-08-07 20:33:00,69.8,58.4,29.62,WSW,245,0.0,0.0,67,0.00,,SKC,0.04,VWS V14.01,2013-08-08 00:33:00,
2013-08-07 20:38:00,69.8,58.8,29.62,WSW,245,0.0,0.0,68,0.00,,SKC,0.04,VWS V14.01,2013-08-08 00:38:00,
2013-08-07 20:43:00,69.8,58.8,29.62,WSW,245,0.0,0.0,68,0.00,,SKC,0.04,VWS V14.01,2013-08-08 00:43:00,
2013-08-07 20:48:00,69.8,58.8,29.62,WSW,246,0.0,0.0,68,0.00,,SKC,0.04,VWS V14.01,2013-08-08 00:48:00,
2013-08-07 20:53:00,69.8,58.8,29.62,WSW,245,0.0,0.0,68,0.00,,SKC,0.04,VWS V14.01,2013-08-08 00:53:00,
2013-08-07 20:58:00,70.0,59.3,29.62,WSW,245,0.0,0.0,69,0.00,,SKC,0.04,VWS V14.01,2013-08-08 00:58:00,
2013-08-07 21:03:00,70.0,59.3,29.62,WSW,245,0.0,0.0,69,0.00,,SKC,0.04,VWS V14.01,2013-08-08 01:03:00,
2013-08-07 21:08:00,70.0,59.3,29.62,WSW,245,0.0,0.0,69,0.00,,SKC,0.04,VWS V14.01,2013-08-08 01:08:00,
2013-08-07 21:13:00,70.0,59.3,29.62,WSW,245,0.0,0.0,69,0.00,,SKC,0.04,VWS V14.01,2013-08-08 01:13:00,
2013-08-07 21:18:00,70.0,59.8,29.62,WSW,245,0.0,0.0,70,0.00,,SKC,0.04,VWS V14.01,2013-08-08 01:18:00,
2013-08-07 21:23:00,70.0,59.8,29.62,WSW,245,0.0,0.0,70,0.00,,SKC,0.04,VWS V14.01,2013-08-08 01:23:00,
2013-08-07 21:28:00,70.2,59.9,29.62,WSW,245,0.0,0.0,70,0.00,,SKC,0.04,VWS V14.01,2013-08-08 01:28:00,
2013-08-07 21:33:00,70.2,59.9,29.62,WSW,245,0.0,0.0,70,0.00,,SKC,0.04,VWS V14.01,2013-08-08 01:33:00,
2013-08-07 21:38:00,70.2,60.3,29.62,WSW,245,0.0,0.0,71,0.00,,SKC,0.04,VWS V14.01,2013-08-08 01:38:00,
2013-08-07 21:43:00,70.2,60.3,29.62,WSW,245,0.0,0.0,71,0.00,,SKC,0.04,VWS V14.01,2013-08-08 01:43:00,
2013-08-07 21:48:00,70.0,60.2,29.62,WSW,245,0.0,0.0,71,0.00,,SKC,0.04,VWS V14.01,2013-08-08 01:48:00,
2013-08-07 21:53:00,70.0,60.2,29.62,WSW,245,0.0,0.0,71,0.00,,SKC,0.04,VWS V14.01,2013-08-08 01:53:00,
2013-08-07 21:58:00,70.0,60.2,29.62,WSW,246,0.0,0.0,71,0.00,,SKC,0.04,VWS V14.01,2013-08-08 01:58:00,
2013-08-07 22:03:00,70.0,60.5,29.62,WSW,245,0.0,0.0,72,0.00,,SKC,0.04,VWS V14.01,2013-08-08 02:03:00,
2013-08-07 22:08:00,70.0,60.5,29.62,WSW,245,0.0,0.0,72,0.00,,SKC,0.04,VWS V14.01,2013-08-08 02:08:00,
2013-08-07 22:13:00,70.0,60.5,29.62,WSW,245,0.0,0.0,72,0.00,,SKC,0.04,VWS V14.01,2013-08-08 02:13:00,
2013-08-07 22:18:00,70.0,60.5,29.62,WSW,245,0.0,0.0,72,0.00,,SKC,0.04,VWS V14.01,2013-08-08 02:18:00,
2013-08-07 22:23:00,70.0,60.9,29.62,WSW,245,0.0,0.0,73,0.00,,SKC,0.04,VWS V14.01,2013-08-08 02:23:00,
2013-08-07 22:28:00,70.0,60.9,29.62,WSW,245,0.0,0.0,73,0.00,,SKC,0.04,VWS V14.01,2013-08-08 02:28:00,
2013-08-07 22:33:00,69.8,60.8,29.62,WSW,246,0.0,0.0,73,0.00,,SKC,0.04,VWS V14.01,2013-08-08 02:33:00,
2013-08-07 22:38:00,69.8,60.8,29.62,WSW,245,0.0,0.0,73,0.00,,SKC,0.04,VWS V14.01,2013-08-08 02:38:00,
2013-08-07 22:43:00,69.8,60.8,29.62,WSW,245,0.0,0.0,73,0.00,,SKC,0.04,VWS V14.01,2013-08-08 02:43:00,
2013-08-07 22:48:00,69.8,60.8,29.62,WSW,246,0.0,0.0,73,0.00,,SKC,0.04,VWS V14.01,2013-08-08 02:48:00,
2013-08-07 22:53:00,69.8,60.8,29.62,WSW,245,0.0,0.0,73,0.00,,SKC,0.04,VWS V14.01,2013-08-08 02:53:00,
2013-08-07 22:58:00,69.8,61.2,29.62,WSW,246,0.0,0.0,74,0.00,,SKC,0.04,VWS V14.01,2013-08-08 02:58:00,
2013-08-07 23:02:00,69.8,61.2,29.62,WSW,245,0.0,0.0,74,0.00,,SKC,0.04,VWS V14.01,2013-08-08 03:02:00,
2013-08-07 23:07:00,69.8,61.2,29.62,WSW,245,0.0,0.0,74,0.00,,SKC,0.04,VWS V14.01,2013-08-08 03:07:00,
2013-08-07 23:12:00,69.8,61.2,29.62,WSW,245,0.0,0.0,74,0.00,,SKC,0.04,VWS V14.01,2013-08-08 03:12:00,
2013-08-07 23:17:00,69.8,61.2,29.62,WSW,246,0.0,0.0,74,0.00,,SKC,0.04,VWS V14.01,2013-08-08 03:17:00,
2013-08-07 23:22:00,69.8,61.2,29.62,WSW,245,0.0,0.0,74,0.00,,SKC,0.04,VWS V14.01,2013-08-08 03:22:00,
2013-08-07 23:27:00,69.8,61.2,29.62,WSW,245,0.0,0.0,74,0.00,,SKC,0.04,VWS V14.01,2013-08-08 03:27:00,
2013-08-07 23:32:00,70.0,61.7,29.62,WSW,245,0.0,0.0,75,0.00,,SKC,0.04,VWS V14.01,2013-08-08 03:32:00,
2013-08-07 23:37:00,70.0,61.7,29.62,WSW,245,0.0,0.0,75,0.00,,SKC,0.04,VWS V14.01,2013-08-08 03:37:00,
2013-08-07 23:42:00,70.3,61.7,29.62,WSW,246,0.0,0.0,74,0.04,,SKC,0.08,VWS V14.01,2013-08-08 03:42:00,
2013-08-07 23:47:00,70.2,61.5,29.62,WSW,245,0.0,0.0,74,0.08,,SKC,0.12,VWS V14.01,2013-08-08 03:47:00,
2013-08-07 23:52:00,70.0,61.7,29.62,WSW,246,0.0,0.0,75,0.08,,SKC,0.12,VWS V14.01,2013-08-08 03:52:00,
2013-08-07 23:57:00,69.8,61.5,29.62,WSW,245,0.0,0.0,75,0.08,,SKC,0.12,VWS V14.01,2013-08-08 03:57:00,